Location: Highland Meadows Observing Site
(48.4428°N, 114.5461°W)
Time: 09:20:18
(UTC-06:00)

Amateur Radio Satellites - All Passes

Search period start: 31 August 2015 08:50
Search period end: 01 September 2015 08:50
Location: Highland Meadows Observing Site, 48.4428°N, 114.5461°W

Satellite Date Start Highest point End Downlink Frequencies (MHz)
Time Altitude Azimuth
STRAND 1 31 Aug 09:01:24 09:05:21 22° 269° (W) 09:09:12 437.568
CUTE 1.7 + AOD 2 31 Aug 09:03:09 09:04:52 12° 86° (E) 09:06:48 437.475
Cosmos 2491 31 Aug 09:07:14 09:14:38 34° 84° (E) 09:22:13 435.465 / 435.565
M-CUBED/EXP-1 PRIME 31 Aug 09:08:05 09:09:41 12° 50° (NE) 09:11:27 437.505
PHONESAT 2.4 31 Aug 09:08:31 09:11:11 21° 177° (S) 09:13:50 2401.200-2431.200
CANX-2 31 Aug 09:16:05 09:19:04 19° 90° (E) 09:22:07 2200.000
GOMX 1 31 Aug 09:16:56 09:22:09 47° 97° (E) 09:27:28 467.674
CUTE-I 31 Aug 09:26:13 09:30:44 28° 298° (WNW) 09:35:11 437.470
Cosmos 2504 31 Aug 09:31:05 09:36:50 20° 52° (NE) 09:42:43 435.465 / 435.565
ISS 31 Aug 09:32:24 09:33:40 12° 136° (SE) 09:35:02 145.825
DOVE 4 31 Aug 09:33:54 09:38:56 42° 96° (E) 09:43:58 437.250
SEEDS 31 Aug 09:38:30 09:41:49 23° 92° (E) 09:45:11 437.485
CUSAT 1 31 Aug 09:42:12 09:46:13 16° 51° (NE) 09:50:51 437.405
TIGRISAT 31 Aug 09:43:00 09:45:24 14° 58° (ENE) 09:47:58 435.000
SO-50 31 Aug 09:56:15 10:01:04 47° 43° (NE) 10:05:48 436.795
HO-68 31 Aug 09:56:24 10:03:21 49° 99° (E) 10:10:18 435.675
ANTELSAT 31 Aug 09:58:44 10:02:03 20° 61° (ENE) 10:05:30 437.575/2403.000
COMPASS 1 31 Aug 10:01:14 10:04:56 30° 95° (E) 10:08:37 437.405
DANDE 31 Aug 10:05:24 10:09:15 15° 53° (NE) 10:13:50 436.750
YUBILEINY 31 Aug 10:11:07 10:19:41 55° 269° (W) 10:28:07 435.215
AAUSAT CUBESAT 2 31 Aug 10:11:57 10:15:43 33° 96° (E) 10:19:29 437.432
CUBEBUG 2 31 Aug 10:19:20 10:23:06 24° 91° (E) 10:26:52 437.445
ZACube-1 31 Aug 10:22:53 10:25:28 15° 87° (E) 10:28:11 437.345
Cubesat XI-IV 31 Aug 10:22:57 10:24:55 12° 308° (NW) 10:26:40 437.490
BRITE-PL 31 Aug 10:23:05 10:28:03 37° 293° (WNW) 10:33:09 437.365/2234.400
CINEMA 3 31 Aug 10:24:10 10:29:07 54° 99° (E) 10:33:57 145.822/145.860
AIST 1 31 Aug 10:24:18 10:27:49 24° 291° (WNW) 10:31:17
UWE-3 31 Aug 10:27:42 10:31:17 22° 90° (E) 10:34:53 435.000/436.395/437.385
FUNcube-1 31 Aug 10:28:22 10:31:13 17° 88° (E) 10:34:09 145.935
POLYITAN 1 31 Aug 10:30:30 10:32:50 15° 60° (ENE) 10:35:19 437.675
PCSat 31 Aug 10:32:59 10:37:47 31° 40° (NE) 10:42:37 145.827
POPSAT HIP 1 31 Aug 10:33:16 10:35:40 15° 60° (ENE) 10:38:13 437.405
DUCHIFAT 1 31 Aug 10:34:19 10:36:40 15° 60° (ENE) 10:39:09 145.980
AUBIESAT-1 31 Aug 10:34:24 10:38:58 49° 64° (ENE) 10:43:26 437.475
CUTE 1.7 + AOD 2 31 Aug 10:37:08 10:41:23 74° 286° (WNW) 10:45:35 437.475
M-CUBED/EXP-1 PRIME 31 Aug 10:38:56 10:43:40 62° 67° (ENE) 10:48:20 437.505
DELFI C3 31 Aug 10:40:49 10:43:47 20° 91° (E) 10:46:49 145.870
BUGSAT 1 31 Aug 10:45:24 10:46:56 12° 58° (ENE) 10:48:40 437.445
PHONESAT 2.4 31 Aug 10:46:08 10:48:26 17° 194° (SSW) 10:50:42 2401.200-2431.200
UNISAT 6 31 Aug 10:48:10 10:52:43 51° 71° (ENE) 10:57:19 437.425
QB50P2 31 Aug 10:49:07 10:52:21 22° 63° (ENE) 10:55:39 145.880/145.840
NANOSAT C BR1 31 Aug 10:50:38 10:53:49 21° 63° (ENE) 10:57:06 145.865
CANX-2 31 Aug 10:51:11 10:55:17 48° 289° (WNW) 10:59:20 2200.000
GOMX 1 31 Aug 10:55:22 11:00:06 31° 295° (WNW) 11:04:51 467.674
Cosmos 2491 31 Aug 11:02:26 11:11:04 63° 285° (WNW) 11:19:43 435.465 / 435.565
QB50P1 31 Aug 11:03:33 11:07:09 28° 66° (ENE) 11:10:51 145.935-145.965
ISS 31 Aug 11:06:22 11:09:35 61° 153° (SSE) 11:12:49 145.825
DOVE 4 31 Aug 11:11:50 11:16:34 33° 294° (WNW) 11:21:14 437.250
HUMSAT D 31 Aug 11:12:24 11:15:22 19° 90° (E) 11:18:24 437.325/437.525
SEEDS 31 Aug 11:13:50 11:17:46 38° 291° (WNW) 11:21:38 437.485
Oscar 11 31 Aug 11:15:58 11:20:18 71° 102° (ESE) 11:24:36 145.826/435.025
TIGRISAT 31 Aug 11:16:48 11:21:30 89° 76° (ENE) 11:26:15 435.000
Cosmos 2504 31 Aug 11:22:17 11:30:54 74° 78° (ENE) 11:39:03 435.465 / 435.565
UKube-1 31 Aug 11:22:29 11:24:10 12° 87° (E) 11:26:04 .
CUSAT 1 31 Aug 11:23:02 11:30:23 57° 72° (ENE) 11:38:31 437.405
AISAT 31 Aug 11:29:10 11:30:23 11° 85° (E) 11:31:51 437.250
ANTELSAT 31 Aug 11:33:45 11:38:25 62° 259° (W) 11:43:07 437.575/2403.000
COMPASS 1 31 Aug 11:36:55 11:40:33 29° 293° (WNW) 11:44:06 437.405
SO-50 31 Aug 11:37:04 11:41:30 33° 242° (WSW) 11:45:47 436.795
HO-68 31 Aug 11:44:21 11:51:02 42° 299° (WNW) 11:57:37 435.675
DANDE 31 Aug 11:46:43 11:53:49 59° 73° (ENE) 12:02:07 436.750
AAUSAT CUBESAT 2 31 Aug 11:47:43 11:51:13 26° 294° (WNW) 11:54:39 437.432
CUBEBUG 2 31 Aug 11:55:29 12:00:01 46° 291° (WNW) 12:04:25 437.445
VELOX 1 31 Aug 11:55:56 11:59:11 20° 91° (E) 12:02:32 145.980
ZACube-1 31 Aug 11:57:50 12:02:23 67° 287° (WNW) 12:06:47 437.345
CINEMA 3 31 Aug 12:01:56 12:05:58 24° 297° (WNW) 12:09:51 145.822/145.860
FUNcube-1 31 Aug 12:03:31 12:08:00 61° 288° (WNW) 12:12:21 145.935
UWE-3 31 Aug 12:03:36 12:08:04 47° 290° (WNW) 12:12:25 435.000/436.395/437.385
POLYITAN 1 31 Aug 12:03:57 12:08:13 74° 256° (WSW) 12:12:33 437.675
POPSAT HIP 1 31 Aug 12:06:47 12:11:02 71° 258° (WSW) 12:15:20 437.405
DUCHIFAT 1 31 Aug 12:07:44 12:11:57 72° 257° (WSW) 12:16:14 145.980
AUBIESAT-1 31 Aug 12:09:56 12:13:50 24° 262° (W) 12:17:37 437.475
YUBILEINY 31 Aug 12:11:47 12:14:37 11° 291° (WNW) 12:16:48 435.215
M-CUBED/EXP-1 PRIME 31 Aug 12:15:12 12:18:47 20° 264° (W) 12:22:12 437.505
DELFI C3 31 Aug 12:15:16 12:19:02 40° 290° (WNW) 12:22:46 145.870
PCSat 31 Aug 12:16:14 12:21:35 59° 241° (WSW) 12:26:53 145.827
BUGSAT 1 31 Aug 12:17:43 12:21:48 87° 252° (WSW) 12:25:58 437.445
QB50P2 31 Aug 12:23:51 12:27:57 46° 261° (W) 12:32:07 145.880/145.840
NANOSAT C BR1 31 Aug 12:25:16 12:29:22 46° 261° (W) 12:33:31 145.865
UNISAT 6 31 Aug 12:26:08 12:29:48 22° 270° (W) 12:33:23 437.425
Oscar 19 31 Aug 12:35:18 12:38:31 17° 57° (ENE) 12:41:54 437.125/150
QB50P1 31 Aug 12:39:03 12:42:56 33° 264° (W) 12:46:50 145.935-145.965
ISS 31 Aug 12:42:54 12:46:05 49° 352° (N) 12:49:16 145.825
DX 1 31 Aug 12:43:08 12:47:33 84° 104° (ESE) 12:51:57 434.975-435.025
HUMSAT D 31 Aug 12:47:16 12:51:25 49° 289° (WNW) 12:55:28 437.325/437.525
ESTCUBE 1 31 Aug 12:48:09 12:52:31 49° 99° (E) 12:56:54 437.505/2401.250
Oscar 11 31 Aug 12:53:25 12:56:00 15° 300° (WNW) 12:58:27 145.826/435.025
UKube-1 31 Aug 12:56:34 13:00:56 79° 286° (WNW) 13:05:16 .
TIGRISAT 31 Aug 12:57:00 12:59:01 12° 275° (W) 13:00:48 435.000
50 SAT 31 Aug 12:57:21 13:01:16 81° 285° (WNW) 13:05:06 437.505
GONETS M04 31 Aug 13:01:45 13:08:05 22° 54° (NE) 13:14:46
AISAT 31 Aug 13:03:11 13:07:42 90° 26° (NNE) 13:12:12 437.250
SPROUT 31 Aug 13:03:20 13:06:32 20° 91° (E) 13:09:50 437.525
Cosmos 2491 31 Aug 13:04:54 13:10:14 17° 312° (NW) 13:15:13 435.465 / 435.565
CUBEBUG 1 31 Aug 13:05:16 13:09:40 60° 101° (E) 13:14:02 437.445
CUSAT 1 31 Aug 13:05:52 13:12:49 40° 269° (W) 13:20:13 437.405
JAS-2 31 Aug 13:07:04 13:10:16 13° 43° (NE) 13:13:47 435.910
Gurwin Techsat 1B 31 Aug 13:13:31 13:15:55 14° 54° (NE) 13:18:33 435.225
Cosmos 2504 31 Aug 13:15:23 13:22:24 28° 279° (W) 13:28:55 435.465 / 435.565
AO-7 31 Aug 13:29:49 13:33:22 14° 33° (NNE) 13:37:11 29.400- 29.500
DANDE 31 Aug 13:30:10 13:36:50 38° 269° (W) 13:44:16 436.750
VELOX 1 31 Aug 13:31:42 13:36:03 50° 290° (WNW) 13:40:22 145.980
ITAMSAT 1 31 Aug 13:33:26 13:36:24 16° 56° (NE) 13:39:33 435.822/435.867
HO-68 31 Aug 13:34:47 13:37:02 11° 321° (NW) 13:38:57 435.675
ZACube-1 31 Aug 13:37:12 13:37:54 10° 305° (NW) 13:38:22 437.345
TISAT 1 31 Aug 14:08:28 14:12:40 52° 100° (E) 14:16:51 437.305
Cosmos 2499 31 Aug 14:11:37 14:16:49 17° 48° (NE) 14:22:12 435.465 / 435.565
Oscar 19 31 Aug 14:12:05 14:17:16 85° 253° (WSW) 14:22:31 437.125/150
ITUPSAT 1 31 Aug 14:14:10 14:15:53 12° 85° (E) 14:17:52 437.325
ISS 31 Aug 14:19:35 14:22:49 55° 12° (NNE) 14:26:01 145.825
DX 1 31 Aug 14:20:56 14:23:14 14° 302° (WNW) 14:25:22 434.975-435.025
ESTCUBE 1 31 Aug 14:25:37 14:29:07 22° 297° (WNW) 14:32:32 437.505/2401.250
UKube-1 31 Aug 14:34:54 14:36:23 11° 304° (WNW) 14:37:41 .
SPROUT 31 Aug 14:38:41 14:42:53 47° 290° (WNW) 14:47:02 437.525
AISAT 31 Aug 14:41:26 14:43:40 13° 302° (WNW) 14:45:44 437.250
CUBEBUG 1 31 Aug 14:42:34 14:45:37 18° 299° (WNW) 14:48:35 437.445
BEESAT 31 Aug 14:46:04 14:49:55 24° 92° (E) 14:53:51 436.000
JAS-2 31 Aug 14:46:20 14:53:35 46° 64° (ENE) 15:00:58 435.910
Gurwin Techsat 1B 31 Aug 14:49:48 14:55:05 72° 73° (ENE) 15:00:24 435.225
GONETS M04 31 Aug 14:57:46 15:06:38 82° 80° (E) 15:15:30
ITAMSAT 1 31 Aug 15:10:04 15:15:15 88° 80° (E) 15:20:29 435.822/435.867
SWISSCUBE 31 Aug 15:11:32 15:16:06 45° 99° (E) 15:20:40 437.505
AO-7 31 Aug 15:16:30 15:24:05 42° 57° (ENE) 15:31:47 29.400- 29.500
TISAT 1 31 Aug 15:44:59 15:48:06 20° 297° (WNW) 15:51:07 437.305
STARS 31 Aug 15:47:34 15:48:12 10° 85° (E) 15:49:06 437.465
ITUPSAT 1 31 Aug 15:49:47 15:54:35 89° 87° (E) 15:59:22 437.325
Oscar 19 31 Aug 15:55:09 15:57:32 13° 276° (W) 15:59:41 437.125/150
ISS 31 Aug 15:56:04 15:59:12 45° 211° (SSW) 16:02:20 145.825
KKS-1 31 Aug 16:02:55 16:06:35 25° 93° (E) 16:10:18 437.445
Cosmos 2499 31 Aug 16:03:33 16:12:17 63° 74° (ENE) 16:20:27 435.465 / 435.565
BEESAT 3 31 Aug 16:13:19 16:17:14 49° 122° (ESE) 16:21:12 437.485
HORYU 2 31 Aug 16:15:40 16:20:02 53° 71° (ENE) 16:24:27 437.375
RS-15 31 Aug 16:22:20 16:31:37 35° 108° (ESE) 16:41:29 29.354- 29.394
BEESAT 31 Aug 16:23:26 16:28:00 45° 291° (WNW) 16:32:31 436.000
BEESAT 2 31 Aug 16:24:53 16:28:51 49° 122° (ESE) 16:32:50 435.950
JAS-2 31 Aug 16:31:05 16:38:34 50° 264° (W) 16:46:09 435.910
Gurwin Techsat 1B 31 Aug 16:31:59 16:35:41 18° 272° (W) 16:39:14 435.225
SWISSCUBE 31 Aug 16:49:48 16:53:46 26° 297° (WNW) 16:57:39 437.505
ITAMSAT 1 31 Aug 16:52:49 16:55:35 14° 274° (W) 16:58:08 435.822/435.867
GONETS M04 31 Aug 16:55:45 17:02:36 25° 280° (W) 17:09:11
AIST 2 31 Aug 16:59:38 17:03:09 26° 117° (ESE) 17:06:44 435.215
AO-7 31 Aug 17:08:32 17:16:44 57° 258° (WSW) 17:24:56 29.400- 29.500
STARS 31 Aug 17:20:57 17:25:27 86° 105° (ESE) 17:29:53 437.465
ITUPSAT 1 31 Aug 17:29:12 17:31:51 15° 303° (WNW) 17:34:21 437.325
CUTE-I 31 Aug 17:33:27 17:37:10 20° 58° (ENE) 17:41:02 437.470
KKS-1 31 Aug 17:39:08 17:43:23 41° 292° (WNW) 17:47:35 437.445
MOZHAYETS 4 31 Aug 17:49:17 17:53:42 46° 98° (E) 17:58:05
BEESAT 3 31 Aug 17:51:51 17:55:23 27° 322° (NW) 17:58:53 437.485
HORYU 2 31 Aug 17:53:43 17:57:01 19° 269° (W) 18:00:13 437.375
Cosmos 2499 31 Aug 17:57:21 18:04:59 34° 277° (W) 18:12:03 435.465 / 435.565
BEESAT 2 31 Aug 18:03:32 18:07:06 27° 322° (NW) 18:10:38 435.950
Cubesat XI-IV 31 Aug 18:26:36 18:31:42 50° 69° (ENE) 18:36:52 437.490
RS-15 31 Aug 18:32:04 18:43:07 79° 313° (NW) 18:54:42 29.354- 29.394
AIST 2 31 Aug 18:37:26 18:41:32 46° 315° (NW) 18:45:40 435.215
HO-68 31 Aug 18:45:46 18:49:14 15° 43° (NE) 18:52:58 435.675
AIST 1 31 Aug 18:49:59 18:52:27 15° 63° (ENE) 18:55:02
GOMX 1 31 Aug 18:55:05 18:56:16 11° 53° (NE) 18:57:40 467.674
STARS 31 Aug 18:58:57 19:01:17 14° 302° (WNW) 19:03:29 437.465
AO-7 31 Aug 19:08:53 19:11:44 11° 281° (W) 19:13:56 29.400- 29.500
O/OREOS (USA 219) 31 Aug 19:10:50 19:13:42 17° 101° (E) 19:16:45 437.305
CUTE-I 31 Aug 19:11:27 19:16:45 74° 256° (WSW) 19:22:06 437.470
Cosmos 2491 31 Aug 19:11:50 19:18:05 22° 54° (NE) 19:24:40 435.465 / 435.565
MOZHAYETS 4 31 Aug 19:27:01 19:30:42 24° 296° (WNW) 19:34:15
STRAND 1 31 Aug 19:28:54 19:31:30 14° 86° (E) 19:34:20 437.568
CUBESAT XI-V 31 Aug 19:42:22 19:46:59 61° 101° (E) 19:51:36 437.345
CINEMA 3 31 Aug 19:55:37 19:57:27 12° 55° (NE) 19:59:32 145.822/145.860
CUTE 1.7 + AOD 2 31 Aug 19:59:27 20:02:03 16° 62° (ENE) 20:04:46 437.475
BRITE-PL 31 Aug 19:59:28 20:03:49 57° 71° (ENE) 20:08:32 437.365/2234.400
Cubesat XI-IV 31 Aug 20:07:38 20:12:06 26° 268° (W) 20:16:32 437.490
CANX-2 31 Aug 20:12:33 20:15:54 23° 65° (ENE) 20:19:20 2200.000
PRISM 31 Aug 20:13:23 20:16:34 22° 93° (E) 20:19:50 437.425
AIST 2 31 Aug 20:18:56 20:21:08 13° 337° (NNW) 20:23:15 435.215
AIST 1 31 Aug 20:26:19 20:30:37 65° 263° (W) 20:34:55
HO-68 31 Aug 20:28:39 20:35:33 54° 65° (ENE) 20:42:31 435.675
GOMX 1 31 Aug 20:28:54 20:33:25 66° 73° (ENE) 20:38:20 467.674
SEEDS 31 Aug 20:34:00 20:37:34 27° 66° (ENE) 20:41:11 437.485
Oscar 11 31 Aug 20:41:12 20:42:51 12° 58° (ENE) 20:44:42 145.826/435.025
DOVE 4 31 Aug 20:43:00 20:47:35 57° 71° (ENE) 20:52:30 437.250
RS-15 31 Aug 20:47:12 20:57:34 39° 343° (NNW) 21:08:21 29.354- 29.394
O/OREOS (USA 219) 31 Aug 20:48:10 20:52:41 63° 299° (WNW) 20:57:15 437.305
COMPASS 1 31 Aug 20:55:48 20:59:36 34° 69° (ENE) 21:03:27 437.405
CUTE-I 31 Aug 20:56:21 20:57:55 11° 277° (W) 20:59:09 437.470
AAUSAT CUBESAT 2 31 Aug 21:06:02 21:09:53 37° 69° (ENE) 21:13:46 437.432
STRAND 1 31 Aug 21:06:21 21:11:30 85° 283° (WNW) 21:16:37 437.568
Cosmos 2491 31 Aug 21:07:51 21:16:40 81° 80° (E) 21:25:28 435.465 / 435.565
YUBILEINY 31 Aug 21:20:21 21:28:11 39° 86° (E) 21:36:12 435.215
CUBESAT XI-V 31 Aug 21:20:42 21:24:02 19° 298° (WNW) 21:27:15 437.345
CUBEBUG 2 31 Aug 21:20:47 21:24:52 32° 66° (ENE) 21:29:07 437.445
ZACube-1 31 Aug 21:22:06 21:25:27 21° 63° (ENE) 21:28:57 437.345
FUNcube-1 31 Aug 21:27:22 21:30:51 23° 63° (ENE) 21:34:28 145.935
UWE-3 31 Aug 21:28:03 21:32:02 29° 66° (ENE) 21:36:07 435.000/436.395/437.385
CINEMA 3 31 Aug 21:29:05 21:33:49 73° 73° (ENE) 21:38:45 145.822/145.860
DELFI C3 31 Aug 21:31:29 21:34:35 22° 65° (ENE) 21:37:45 145.870
CUTE 1.7 + AOD 2 31 Aug 21:33:15 21:37:31 65° 259° (WSW) 21:41:48 437.475
BRITE-PL 31 Aug 21:39:45 21:42:53 18° 273° (W) 21:46:03 437.365/2234.400
CANX-2 31 Aug 21:47:31 21:51:37 42° 262° (W) 21:55:43 2200.000
PRISM 31 Aug 21:48:19 21:52:10 39° 291° (WNW) 21:55:59 437.425
HUMSAT D 31 Aug 22:07:30 22:10:53 23° 64° (ENE) 22:14:20 437.325/437.525
DX 1 31 Aug 22:08:11 22:10:45 16° 60° (ENE) 22:13:27 434.975-435.025
GOMX 1 31 Aug 22:09:10 22:12:12 17° 274° (W) 22:15:12 467.674
SEEDS 31 Aug 22:09:20 22:13:15 34° 264° (W) 22:17:08 437.485
Cosmos 2504 31 Aug 22:12:29 22:13:38 10° 68° (ENE) 22:15:26 435.465 / 435.565
50 SAT 31 Aug 22:12:42 22:13:53 11° 59° (ENE) 22:15:12 437.505
Oscar 11 31 Aug 22:14:02 22:18:25 87° 70° (ENE) 22:22:47 145.826/435.025
HO-68 31 Aug 22:17:02 22:23:35 36° 265° (W) 22:30:06 435.675
ESTCUBE 1 31 Aug 22:18:41 22:19:33 11° 56° (NE) 22:20:37 437.505/2401.250
UKube-1 31 Aug 22:20:25 22:23:20 18° 61° (ENE) 22:26:23 .
DOVE 4 31 Aug 22:22:20 22:25:49 20° 272° (W) 22:29:20 437.250
AISAT 31 Aug 22:29:48 22:32:40 18° 60° (ENE) 22:35:39 437.250
O/OREOS (USA 219) 31 Aug 22:31:10 22:33:09 12° 322° (NW) 22:35:01 437.305
COMPASS 1 31 Aug 22:31:45 22:35:20 26° 267° (W) 22:38:52 437.405
CUBEBUG 1 31 Aug 22:32:15 22:33:29 11° 57° (ENE) 22:34:55 437.445
AAUSAT CUBESAT 2 31 Aug 22:42:09 22:45:36 24° 268° (W) 22:48:59 437.432
STRAND 1 31 Aug 22:47:04 22:50:01 15° 304° (NW) 22:52:47 437.568
BEESAT 3 31 Aug 22:50:55 22:53:55 20° 32° (NNE) 22:56:57 437.485
VELOX 1 31 Aug 22:56:57 23:00:42 28° 65° (ENE) 23:04:31 145.980
ZACube-1 31 Aug 22:56:59 23:01:28 55° 261° (W) 23:06:01 437.345
CUBEBUG 2 31 Aug 22:57:11 23:01:30 36° 265° (W) 23:05:52 437.445
FUNcube-1 31 Aug 23:02:26 23:06:53 50° 261° (W) 23:11:22 145.935
BEESAT 2 31 Aug 23:02:57 23:06:00 20° 32° (NNE) 23:09:03 435.950
RS-15 31 Aug 23:03:10 23:13:41 39° 16° (NNE) 23:24:42 29.354- 29.394
UWE-3 31 Aug 23:04:08 23:08:27 38° 264° (W) 23:12:49 435.000/436.395/437.385
DELFI C3 31 Aug 23:05:36 23:09:27 40° 262° (W) 23:13:16 145.870
Cosmos 2491 31 Aug 23:05:50 23:12:40 25° 280° (W) 23:19:13 435.465 / 435.565
TIGRISAT 31 Aug 23:06:17 23:08:52 15° 87° (E) 23:11:34 435.000
CINEMA 3 31 Aug 23:08:38 23:11:39 16° 274° (W) 23:14:33 145.822/145.860
YUBILEINY 31 Aug 23:16:11 23:24:48 56° 288° (WNW) 23:33:28 435.215
ANTELSAT 31 Aug 23:22:42 23:26:15 22° 91° (E) 23:29:49 437.575/2403.000
AIST 2 31 Aug 23:39:26 23:41:52 15° 25° (NNE) 23:44:21 435.215
DX 1 31 Aug 23:42:12 23:46:31 70° 257° (WSW) 23:50:53 434.975-435.025
HUMSAT D 31 Aug 23:42:13 23:46:22 43° 262° (W) 23:50:32 437.325/437.525
50 SAT 31 Aug 23:43:50 23:47:49 88° 251° (WSW) 23:51:48 437.505
POLYITAN 1 31 Aug 23:46:53 23:49:13 15° 88° (E) 23:51:43 437.675
AUBIESAT-1 31 Aug 23:47:11 23:49:48 17° 94° (E) 23:52:22 437.475
POPSAT HIP 1 31 Aug 23:49:23 23:51:49 15° 88° (E) 23:54:24 437.405
DUCHIFAT 1 31 Aug 23:49:54 23:52:13 15° 88° (E) 23:54:42 145.980
ESTCUBE 1 31 Aug 23:51:12 23:55:40 71° 73° (ENE) 00:00:09 437.505/2401.250
M-CUBED/EXP-1 PRIME 31 Aug 23:52:09 23:55:23 23° 97° (E) 23:58:27 437.505
Oscar 11 31 Aug 23:53:55 23:55:18 11° 275° (W) 23:56:27 145.826/435.025
UKube-1 31 Aug 23:54:50 23:59:06 57° 259° (W) 00:03:22 .
Cosmos 2504 31 Aug 23:56:06 00:03:53 51° 89° (E) 00:12:08 435.465 / 435.565
BUGSAT 1 31 Aug 23:58:16 23:59:28 11° 86° (E) 00:00:54 437.445
SPROUT 01 Sep 00:00:58 00:04:30 26° 65° (ENE) 00:08:07 437.525
AISAT 01 Sep 00:04:25 00:08:48 64° 259° (WSW) 00:13:13 437.250
CUBEBUG 1 01 Sep 00:04:50 00:09:09 79° 75° (ENE) 00:13:32 437.445
QB50P2 01 Sep 00:05:42 00:09:04 22° 92° (E) 00:12:30 145.880/145.840
NANOSAT C BR1 01 Sep 00:06:42 00:10:00 22° 92° (E) 00:13:24 145.865
UNISAT 6 01 Sep 00:13:00 00:17:37 66° 101° (ESE) 00:22:05 437.425
QB50P1 01 Sep 00:20:05 00:23:53 30° 95° (E) 00:27:41 145.935-145.965
BEESAT 3 01 Sep 00:28:17 00:32:21 80° 234° (SW) 00:36:20 437.485
VELOX 1 01 Sep 00:33:06 00:37:10 35° 264° (W) 00:41:14 145.980
CUSAT 1 01 Sep 00:35:01 00:38:45 33° 88° (E) 00:43:37 437.405
BEESAT 2 01 Sep 00:40:26 00:44:32 80° 234° (SW) 00:48:34 435.950
TIGRISAT 01 Sep 00:41:35 00:46:12 70° 287° (WNW) 00:50:41 435.000
SWISSCUBE 01 Sep 00:47:14 00:49:12 13° 56° (NE) 00:51:22 437.505
ANTELSAT 01 Sep 00:58:52 01:03:18 46° 290° (WNW) 01:07:36 437.575/2403.000
TISAT 1 01 Sep 01:03:52 01:08:02 63° 73° (ENE) 01:12:15 437.305
DANDE 01 Sep 01:03:54 01:07:18 35° 90° (E) 01:11:45 436.750
RS-15 01 Sep 01:16:42 01:28:27 73° 46° (NE) 01:40:40 29.354- 29.394
AIST 2 01 Sep 01:17:10 01:21:20 57° 47° (NE) 01:25:25 435.215
YUBILEINY 01 Sep 01:19:31 01:24:17 15° 315° (NW) 01:28:38 435.215
AUBIESAT-1 01 Sep 01:20:58 01:24:53 47° 296° (WNW) 01:28:29 437.475
POLYITAN 1 01 Sep 01:21:19 01:25:38 66° 287° (WNW) 01:29:53 437.675
ITUPSAT 1 01 Sep 01:23:46 01:27:28 23° 62° (ENE) 01:31:14 437.325
POPSAT HIP 1 01 Sep 01:23:53 01:28:10 64° 288° (WNW) 01:32:25 437.405
DUCHIFAT 1 01 Sep 01:24:14 01:28:31 65° 286° (WNW) 01:32:45 145.980
M-CUBED/EXP-1 PRIME 01 Sep 01:26:31 01:30:20 36° 298° (WNW) 01:33:50 437.505
ESTCUBE 1 01 Sep 01:30:33 01:33:06 14° 273° (W) 01:35:29 437.505/2401.250
BUGSAT 1 01 Sep 01:31:18 01:35:35 84° 285° (WNW) 01:39:51 437.445
SPROUT 01 Sep 01:36:25 01:40:26 37° 263° (W) 01:44:28 437.525
QB50P2 01 Sep 01:41:03 01:45:09 42° 290° (WNW) 01:49:11 145.880/145.840
NANOSAT C BR1 01 Sep 01:41:58 01:46:03 42° 290° (WNW) 01:50:05 145.865
CUBEBUG 1 01 Sep 01:44:21 01:46:10 12° 274° (W) 01:47:48 437.445
Cosmos 2504 01 Sep 01:48:31 01:56:21 43° 292° (WNW) 02:04:27 435.465 / 435.565
UNISAT 6 01 Sep 01:50:47 01:53:55 18° 300° (WNW) 01:56:52 437.425
SO-50 01 Sep 01:54:19 01:58:41 36° 119° (ESE) 02:03:13 436.795
QB50P1 01 Sep 01:55:53 01:59:44 31° 293° (WNW) 02:03:30 145.935-145.965
BEESAT 01 Sep 01:55:55 02:00:24 43° 68° (ENE) 02:04:56 436.000
GONETS M04 01 Sep 02:10:35 02:16:01 19° 76° (ENE) 02:21:51
CUSAT 1 01 Sep 02:17:26 02:21:20 31° 298° (WNW) 02:26:17 437.405
Oscar 19 01 Sep 02:20:19 02:24:37 26° 92° (E) 02:28:58 437.125/150
TIGRISAT 01 Sep 02:20:52 02:22:07 11° 305° (NW) 02:23:10 435.000
SWISSCUBE 01 Sep 02:21:35 02:26:21 78° 73° (ENE) 02:31:09 437.505
TISAT 1 01 Sep 02:41:49 02:44:17 15° 272° (W) 02:46:36 437.305
STARS 01 Sep 02:46:55 02:49:39 17° 60° (ENE) 02:52:32 437.465
DANDE 01 Sep 02:47:27 02:50:42 23° 301° (WNW) 02:54:42 436.750
AIST 2 01 Sep 02:56:28 02:59:33 20° 246° (WSW) 03:02:31 435.215
ITUPSAT 1 01 Sep 03:00:23 03:05:03 52° 260° (W) 03:09:45 437.325
PCSat 01 Sep 03:01:10 03:06:29 60° 118° (ESE) 03:11:50 145.827
Gurwin Techsat 1B 01 Sep 03:02:54 03:06:50 21° 90° (E) 03:10:55 435.225
KKS-1 01 Sep 03:04:28 03:08:30 36° 67° (ENE) 03:12:38 437.445
BUGSAT 1 01 Sep 03:08:51 03:10:24 12° 302° (WNW) 03:11:47 437.445
ITAMSAT 1 01 Sep 03:19:40 03:23:45 24° 91° (E) 03:27:56 435.822/435.867
MOZHAYETS 4 01 Sep 03:21:58 03:22:44 10° 55° (NE) 03:23:41
RS-15 01 Sep 03:29:37 03:40:26 42° 249° (WSW) 03:51:22 29.354- 29.394
BEESAT 01 Sep 03:34:24 03:38:26 26° 267° (W) 03:42:24 436.000
SO-50 01 Sep 03:34:32 03:39:11 43° 319° (NW) 03:43:57 436.795
O/OREOS (USA 219) 01 Sep 03:37:24 03:39:19 12° 39° (NE) 03:41:23 437.305
JAS-2 01 Sep 03:37:59 03:43:43 26° 86° (E) 03:49:04 435.910
Cosmos 2504 01 Sep 03:48:56 03:51:36 11° 319° (NW) 03:53:48 435.465 / 435.565
Oscar 19 01 Sep 03:59:13 04:04:15 49° 291° (WNW) 04:09:14 437.125/150
SWISSCUBE 01 Sep 04:02:12 04:04:52 14° 273° (W) 04:07:19 437.505
GONETS M04 01 Sep 04:02:56 04:11:37 82° 96° (E) 04:20:24
STARS 01 Sep 04:21:14 04:25:38 69° 258° (WSW) 04:30:05 437.465
KKS-1 01 Sep 04:41:20 04:45:13 28° 266° (W) 04:49:05 437.445
Gurwin Techsat 1B 01 Sep 04:42:03 04:47:18 62° 290° (WNW) 04:52:33 435.225
Cosmos 2499 01 Sep 04:43:38 04:51:35 46° 88° (E) 04:59:56 435.465 / 435.565
PCSat 01 Sep 04:45:26 04:50:15 31° 320° (NW) 04:55:04 145.827
MOZHAYETS 4 01 Sep 04:54:35 04:59:10 67° 73° (ENE) 05:03:45
ITAMSAT 1 01 Sep 04:58:33 05:03:37 54° 291° (WNW) 05:08:40 435.822/435.867
AO-7 01 Sep 05:05:40 05:13:23 41° 97° (E) 05:21:07 29.400- 29.500
CUBESAT XI-V 01 Sep 05:14:56 05:17:04 13° 58° (ENE) 05:19:22 437.345
O/OREOS (USA 219) 01 Sep 05:15:11 05:19:47 63° 61° (ENE) 05:24:21 437.305
SO-50 01 Sep 05:17:55 05:21:00 16° 341° (NNW) 05:24:03 436.795
JAS-2 01 Sep 05:22:21 05:29:33 67° 290° (WNW) 05:35:52 435.910
HORYU 2 01 Sep 05:39:27 05:43:55 63° 102° (ESE) 05:48:19 437.375
VERMONT LUNAR 01 Sep 05:56:39 05:58:39 16° 172° (S) 06:00:39 437.305
GONETS M04 01 Sep 06:02:28 06:09:41 27° 302° (WNW) 06:16:44
Gurwin Techsat 1B 01 Sep 06:24:24 06:26:22 12° 308° (NW) 06:28:06 435.225
PCSat 01 Sep 06:33:09 06:35:30 13° 345° (NNW) 06:37:45 145.827
MOZHAYETS 4 01 Sep 06:34:01 06:36:54 16° 272° (W) 06:39:39
Cosmos 2499 01 Sep 06:36:29 06:44:47 49° 290° (WNW) 06:53:22 435.465 / 435.565
Cubesat XI-IV 01 Sep 06:41:23 06:44:07 14° 86° (E) 06:47:06 437.490
ITAMSAT 1 01 Sep 06:41:30 06:42:08 10° 309° (NW) 06:42:30 435.822/435.867
PHONESAT 2.4 01 Sep 06:47:26 06:48:21 11° 158° (SSE) 06:49:20 2401.200-2431.200
STRAND 1 01 Sep 06:47:47 06:52:11 31° 64° (ENE) 06:56:40 437.568
CUBESAT XI-V 01 Sep 06:49:16 06:53:53 89° 67° (ENE) 06:58:30 437.345
O/OREOS (USA 219) 01 Sep 06:55:42 06:58:47 17° 259° (WSW) 07:01:42 437.305
AO-7 01 Sep 06:58:26 07:06:30 56° 298° (WNW) 07:14:28 29.400- 29.500
SO-50 01 Sep 07:01:21 07:03:31 13° 6° (N) 07:05:42 436.795
PRISM 01 Sep 07:06:51 07:10:18 27° 66° (ENE) 07:13:49 437.425
JAS-2 01 Sep 07:08:47 07:13:18 17° 312° (NW) 07:17:18 435.910
HORYU 2 01 Sep 07:17:03 07:20:07 18° 300° (WNW) 07:23:04 437.375
CUTE-I 01 Sep 07:24:53 07:29:39 33° 95° (E) 07:34:28 437.470
YUBILEINY 01 Sep 07:25:09 07:32:02 25° 57° (ENE) 07:39:07 435.215
VERMONT LUNAR 01 Sep 07:32:29 07:34:28 16° 189° (S) 07:36:26 437.305
BRITE-PL 01 Sep 08:00:30 08:04:07 18° 87° (E) 08:07:59 437.365/2234.400
PCSat 01 Sep 08:19:37 08:21:25 12° 11° (N) 08:23:16 145.827
Cubesat XI-IV 01 Sep 08:19:42 08:25:04 88° 290° (WNW) 08:30:25 437.490
Cosmos 2491 01 Sep 08:20:48 08:26:13 19° 76° (ENE) 08:32:02 435.465 / 435.565
PHONESAT 2.4 01 Sep 08:22:55 08:25:30 20° 174° (S) 08:28:06 2401.200-2431.200
STRAND 1 01 Sep 08:26:29 08:31:18 41° 262° (W) 08:36:07 437.568
GOMX 1 01 Sep 08:27:20 08:31:02 19° 87° (E) 08:34:56 467.674
CUBESAT XI-V 01 Sep 08:30:21 08:32:05 12° 276° (W) 08:33:34 437.345
Cosmos 2499 01 Sep 08:36:36 08:40:49 13° 317° (NW) 08:44:36 435.465 / 435.565
DOVE 4 01 Sep 08:39:26 08:42:16 15° 84° (E) 08:45:20 437.250
SO-50 01 Sep 08:41:50 08:45:49 24° 30° (NNE) 08:49:48 436.795
PRISM 01 Sep 08:41:59 08:45:41 31° 264° (W) 08:49:20 437.425
